Simultaneous Nadir Overpasses (SNOs) Predictions

Prediction of SNOs between LANDSAT-8 and NOAA-19 Satellite Orbit:

Table of predicted SNOs for the next 14.0 days since TLE Epoch: 5/28/2016
Index Date (LANDSAT-8) Time (LANDSAT-8) Lat,Lon (LANDSAT-8) SZA (LANDSAT-8 ) Date (NOAA-19) Time (NOAA-19) Lat,Lon (NOAA-19) SZA (NOAA-19 ) Distance(km) Time Diff (sec)
1 05/28/2016 23:19:17 74.64,-165.28 52.98 05/28/2016 23:18:56 74.65,-165.28 52.99 1.81 21
2 05/29/2016 00:08:46 -74.56, 2.17 127.11 05/29/2016 00:09:56 -74.58, 2.19 127.09 1.34 70
3 05/31/2016 04:53:03 -74.63, -68.74 127.36 05/31/2016 04:53:00 -74.62, -68.66 127.37 2.39 3
4 06/02/2016 09:37:18 -74.74,-139.53 127.54 06/02/2016 09:36:05 -74.77,-139.79 127.52 8.32 73
5 06/02/2016 10:26:45 74.66, 27.91 52.38 06/02/2016 10:27:04 74.65, 27.79 52.37 3.64 19
6 06/04/2016 15:11:02 74.71, -43.02 52.17 06/04/2016 15:10:08 74.68, -43.01 52.14 3.68 54
7 06/04/2016 16:00:31 -74.65, 124.45 127.90 06/04/2016 16:01:07 -74.63, 124.37 127.92 2.79 36
8 06/06/2016 20:44:48 -74.70, 53.51 128.08 06/06/2016 20:44:11 -74.69, 53.49 128.09 1.29 37
9 06/06/2016 21:34:15 74.62,-139.05 51.83 06/06/2016 21:35:12 74.62,-139.05 51.84 0.05 57
10 06/09/2016 02:18:32 74.67, 150.00 51.69 06/09/2016 02:18:16 74.66, 150.12 51.68 3.82 16




NCC Satellite Simultaneous Nadir Overpasses (SNOs) Prediction Service
